FUNCUBE-1 (AO-73)

Last updated on Thu Nov 21 2024 00:03:02 GMT+0000 (Coordinated Universal Time)

1 39444U 13066AE 24325.25686874 .00012726 00000+0 10940-2 0 9995 2 39444 97.7409 281.8516 0043966 344.5065 15.4807 14.96796531593416
UTC large
Height (km)
Speed (km/s)
/
Latitude / Longitude
Inclination (degrees)
Orbital Period (minutes)
Azimuth
Elevation
Range (km)
Doppler Factor

Next 0 passes for location: London (51.5072 / 0.1276)

Sorry there are no passes over London.